Erie, CO

2:35 PM MDT on April 29, 2017 (GMT -0600)
Erie Municipal Airport

Weather History for KEIK - March, 2013

Change the Weather History Date:

Thursday, March 21, 2013

  Actual Average (KBJC) Record (KBJC)
Temperature  
Mean Temperature 43 °F -  
Max Temperature 55 °F 52 °F 73 °F (2009)
Min Temperature 31 °F 32 °F 4 °F (1987)
Degree Days  
Heating Degree Days 22    
Moisture  
Dew Point 22 °F    
Average Humidity 47    
Maximum Humidity 76    
Minimum Humidity 18    
Precipitation  
Precipitation 0.00 in - - ()
Sea Level Pressure  
Sea Level Pressure 29.65 in    
Wind  
Wind Speed 5 mph (West)    
Max Wind Speed 24 mph    
Max Gust Speed 32 mph    
Visibility 10 miles    
Events Rain    
Averages and records for this station are not official NWS values.
T = Trace of Precipitation, MM = Missing Value Source: NWS Daily Summary

Daily Weather History Graph

Daily Weather History Graph

Search for Another Location

Airport or City:

Trip Planner

Search our weather history database for the weather conditions in past years. The results will help you decide how hot, cold, wet, or windy it might be!

Date:

Astronomy

Mar. 21, 2013 Rise Set
Actual Time 7:01 AM MDT 7:13 PM MDT
Civil Twilight 6:34 AM MDT 7:40 PM MDT
Nautical Twilight 6:02 AM MDT 8:12 PM MDT
Astronomical Twilight 5:30 AM MDT 8:44 PM MDT
Moon 1:46 PM MDT (3/21) 3:24 AM MDT (3/21)
Length of Visible Light 13h 06m
Length of Day
12h 12m
Waxing Gibbous, 69% of the Moon is Illuminated
Mar 21
Waxing Gibbous
Mar 27
Full
Apr 2
Last Quarter
Apr 10
New
Apr 18
First Quarter

Hourly Weather History & Observations

Time (MDT) Temp. Windchill Dew Point Humidity Pressure Visibility Wind Dir Wind Speed Gust Speed Precip Events Conditions
12:16 AM 34.0 °F - 22.3 °F 62% 29.72 in 10.0 mi Calm Calm - N/A   Clear
12:36 AM 31.8 °F - 23.2 °F 70% 29.72 in 10.0 mi Calm Calm - N/A   Clear
12:56 AM 32.0 °F - 23.2 °F 70% 29.72 in 10.0 mi Calm Calm - N/A   Clear
1:16 AM 32.9 °F - 23.9 °F 69% 29.72 in 10.0 mi Calm Calm - N/A   Clear
1:36 AM 32.2 °F 28.9 °F 23.5 °F 70% 29.72 in 10.0 mi SSE 3.5 mph - N/A   Clear
1:56 AM 33.6 °F 29.4 °F 23.9 °F 68% 29.70 in 10.0 mi West 4.6 mph - N/A   Clear
2:16 AM 32.9 °F 29.8 °F 23.9 °F 69% 29.69 in 10.0 mi North 3.5 mph - N/A   Clear
2:36 AM 32.4 °F - 24.4 °F 73% 29.69 in 10.0 mi Calm Calm - N/A   Clear
2:56 AM 32.9 °F 29.8 °F 24.3 °F 71% 29.69 in 10.0 mi South 3.5 mph - N/A   Clear
3:16 AM 34.0 °F 29.8 °F 24.3 °F 68% 29.68 in 10.0 mi South 4.6 mph - N/A   Clear
3:36 AM 34.0 °F 31.0 °F 23.9 °F 67% 29.67 in 10.0 mi NNW 3.5 mph - N/A   Clear
3:56 AM 31.8 °F - 23.5 °F 71% 29.66 in 10.0 mi Calm Calm - N/A   Clear
4:16 AM 32.0 °F 28.7 °F 24.4 °F 74% 29.66 in 10.0 mi WSW 3.5 mph - N/A   Clear
4:36 AM 32.0 °F 28.7 °F 23.9 °F 72% 29.65 in 10.0 mi SSE 3.5 mph - N/A   Clear
4:56 AM 32.9 °F 28.5 °F 24.4 °F 71% 29.64 in 10.0 mi SW 4.6 mph - N/A   Clear
5:16 AM 31.1 °F 26.4 °F 24.4 °F 76% 29.63 in 10.0 mi SW 4.6 mph - N/A   Clear
5:36 AM 32.4 °F - 25.0 °F 74% 29.62 in 10.0 mi Calm Calm - N/A   Clear
5:56 AM 39.7 °F 37.6 °F 25.2 °F 56% 29.62 in 10.0 mi SSW 3.5 mph - N/A   Clear
6:16 AM 38.5 °F 35.0 °F 25.0 °F 58% 29.62 in 10.0 mi South 4.6 mph - N/A   Clear
6:36 AM 37.2 °F 32.6 °F 26.1 °F 64% 29.61 in 10.0 mi South 5.8 mph - N/A   Clear
6:56 AM 41.0 °F 39.0 °F 25.2 °F 53% 29.61 in 10.0 mi SSW 3.5 mph - N/A   Clear
7:16 AM 40.5 °F - 26.1 °F 57% 29.60 in 10.0 mi Calm Calm - N/A   Clear
7:36 AM 41.2 °F - 25.7 °F 54% 29.60 in 10.0 mi Calm Calm - N/A   Scattered Clouds
7:56 AM 43.7 °F 42.1 °F 25.5 °F 49% 29.60 in 10.0 mi SSW 3.5 mph - N/A   Mostly Cloudy
8:16 AM 44.6 °F - 25.2 °F 46% 29.60 in 10.0 mi Calm Calm - N/A   Overcast
8:36 AM 44.6 °F 42.2 °F 25.5 °F 47% 29.60 in 10.0 mi South 4.6 mph - N/A   Overcast
8:56 AM 45.1 °F 42.8 °F 26.6 °F 48% 29.60 in 10.0 mi South 4.6 mph - N/A   Overcast
9:16 AM 48.2 °F - 25.7 °F 42% 29.58 in 10.0 mi South 4.6 mph - N/A   Overcast
9:36 AM 50.7 °F - 24.6 °F 36% 29.56 in 10.0 mi SSW 6.9 mph - N/A   Mostly Cloudy
9:56 AM 52.3 °F - 23.5 °F 33% 29.55 in 10.0 mi SSW 8.1 mph - N/A   Scattered Clouds
10:16 AM 53.1 °F - 23.0 °F 31% 29.55 in 10.0 mi South 8.1 mph - N/A   Scattered Clouds
10:36 AM 49.3 °F - 26.2 °F 41% 29.55 in 10.0 mi ESE 3.5 mph - N/A   Clear
10:56 AM 50.2 °F - 26.4 °F 40% 29.54 in 10.0 mi Calm Calm - N/A   Clear
11:16 AM 52.7 °F - 30.4 °F 42% 29.54 in 10.0 mi North 9.2 mph - N/A   Clear
11:36 AM 53.2 °F - 28.8 °F 39% 29.53 in 10.0 mi North 10.4 mph - N/A   Clear
11:56 AM 54.0 °F - 29.3 °F 39% 29.53 in 10.0 mi North 13.8 mph 17.3 mph N/A   Clear
12:16 PM 54.9 °F - 27.9 °F 35% 29.53 in 10.0 mi North 9.2 mph - N/A   Clear
12:36 PM 55.4 °F - 28.0 °F 35% 29.53 in 10.0 mi North 13.8 mph - N/A   Clear
12:56 PM 53.8 °F - 27.5 °F 36% 29.52 in 10.0 mi NNE 9.2 mph - N/A   Clear
1:16 PM 55.4 °F - 27.5 °F 34% 29.53 in 10.0 mi North 8.1 mph - N/A   Clear
1:36 PM 53.8 °F - 27.7 °F 37% 29.53 in 10.0 mi North 23.0 mph 27.6 mph N/A   Scattered Clouds
1:56 PM 51.8 °F - 26.4 °F 37% 29.55 in 10.0 mi North 21.9 mph 27.6 mph N/A   Mostly Cloudy
2:16 PM 49.5 °F - 29.7 °F 47% 29.58 in 10.0 mi NNW 24.2 mph 29.9 mph N/A   Overcast
2:36 PM 46.0 °F 39.0 °F 33.4 °F 61% 29.60 in 10.0 mi NNW 17.3 mph 32.2 mph N/A Rain Light Rain
2:56 PM 45.1 °F 39.1 °F 36.1 °F 71% 29.60 in 10.0 mi North 12.7 mph - N/A   Overcast
3:16 PM 46.0 °F 40.2 °F 35.1 °F 66% 29.60 in 10.0 mi North 12.7 mph 18.4 mph N/A   Mostly Cloudy
3:36 PM 46.4 °F 41.5 °F 35.2 °F 65% 29.60 in 10.0 mi NNE 10.4 mph - N/A   Mostly Cloudy
3:56 PM 47.3 °F - 35.2 °F 63% 29.60 in 10.0 mi NE 10.4 mph - N/A   Scattered Clouds
4:11 PM 48.2 °F - 36.0 °F 63% 29.60 in 10.0 mi NE 11.5 mph - N/A   Clear
4:56 PM - - - N/A% 29.62 in - NE 8.1 mph - N/A   Unknown
5:16 PM 49.6 °F - 31.5 °F 50% 29.64 in 10.0 mi NNW 4.6 mph - N/A   Scattered Clouds
5:36 PM 51.1 °F - 9.1 °F 19% 29.65 in 10.0 mi WNW 23.0 mph 27.6 mph N/A   Clear
5:56 PM 50.4 °F - 7.9 °F 18% 29.66 in 10.0 mi NW 15.0 mph 27.6 mph N/A   Clear
6:16 PM 48.9 °F - 8.6 °F 20% 29.67 in 10.0 mi WNW 17.3 mph 24.2 mph N/A   Clear
6:36 PM 46.4 °F 41.1 °F 10.6 °F 23% 29.70 in 10.0 mi West 11.5 mph - N/A   Clear
6:56 PM 45.0 °F 40.6 °F 11.1 °F 25% 29.71 in 10.0 mi WSW 8.1 mph 17.3 mph N/A   Clear
7:16 PM 43.2 °F 41.5 °F 10.9 °F 27% 29.73 in 10.0 mi SSW 3.5 mph - N/A   Clear
7:36 PM 41.9 °F 38.2 °F 11.1 °F 28% 29.74 in 10.0 mi WSW 5.8 mph - N/A   Clear
7:56 PM 41.9 °F 36.3 °F 7.3 °F 24% 29.75 in 10.0 mi West 9.2 mph - N/A   Clear
8:16 PM 41.9 °F 36.3 °F 8.4 °F 25% 29.75 in 10.0 mi West 9.2 mph - N/A   Clear
8:36 PM 41.4 °F 36.8 °F 7.9 °F 25% 29.76 in 10.0 mi West 6.9 mph - N/A   Clear
8:56 PM 41.7 °F 36.1 °F 8.6 °F 26% 29.77 in 10.0 mi SW 9.2 mph - N/A   Scattered Clouds
9:16 PM 40.1 °F 35.3 °F 10.4 °F 30% 29.77 in 10.0 mi WSW 6.9 mph - N/A   Clear
9:36 PM 38.1 °F 33.7 °F 12.4 °F 35% 29.78 in 10.0 mi WSW 5.8 mph - N/A   Clear
9:56 PM 38.1 °F 31.7 °F 11.8 °F 34% 29.79 in 10.0 mi SW 9.2 mph - N/A   Clear
10:16 PM 40.5 °F 35.8 °F 9.9 °F 29% 29.79 in 10.0 mi SW 6.9 mph - N/A   Clear
10:36 PM 40.1 °F 34.1 °F 9.0 °F 28% 29.80 in 10.0 mi West 9.2 mph - N/A   Clear
10:56 PM 40.8 °F 38.8 °F 8.4 °F 26% 29.81 in 10.0 mi SSW 3.5 mph - N/A   Scattered Clouds
11:16 PM 36.5 °F 32.7 °F 10.4 °F 34% 29.82 in 10.0 mi ENE 4.6 mph - N/A   Mostly Cloudy
11:36 PM 35.4 °F 32.6 °F 6.8 °F 30% 29.82 in 10.0 mi SSE 3.5 mph - N/A   Scattered Clouds
11:56 PM 33.3 °F - 11.5 °F 41% 29.82 in 10.0 mi Calm Calm - N/A   Clear